Location: Unspecified
(51.5147°N, 7.4673°E)
Time: 05:57:21
(UTC+01:00)

A-11 Canister half - Pass Details

Date: 18 February 2026
Orbit: 1512 x 1687 km, 47.2° (Epoch: 5 March)

Event Time Altitude Azimuth Distance (km) Brightness Sun altitude
Rises 21:26:27 0° 225° (SW) 4,933 11.9 -33.5°
Reaches altitude 10° 21:29:47 10° 220° (SW) 3,943 11.2 -34.0°
Enters shadow 21:35:59 37° 193° (SSW) 2,407 9.8 -34.8°
Maximum altitude 21:39:16 47° 151° (SSE) 2,097 - -35.2°
Drops below altitude 10° 21:48:33 10° 81° (E) 3,867 - -36.5°
Sets 21:51:46 0° 76° (ENE) 4,831 - -36.9°
